Location: Anciles
(42.5833°N, 0.5167°E)
Time: 16:07:48
(UTC+00:00)

DMSP B5D1-3 - Pass Details

Date: 10 December 2019
Orbit: 766 x 781 km, 98.5° (Epoch: 25 January)

Event Time Altitude Azimuth Distance (km) Brightness Sun altitude
Exits shadow 18:44:11 71° 58° (ENE) 823 4.4 -24.9°
Maximum altitude 18:44:37 76° 103° (ESE) 802 4.3 -24.9°
Drops below altitude 10° 18:49:42 10° 189° (S) 2,310 7.2 -25.9°
Sets 18:52:00 0° 191° (S) 3,230 8.0 -26.3°
